CDT,Max TemperatureF,Mean TemperatureF,Min TemperatureF,Max Dew PointF,MeanDew PointF,Min DewpointF,Max Humidity, Mean Humidity, Min Humidity, Max Sea Level PressureIn, Mean Sea Level PressureIn, Min Sea Level PressureIn, Max VisibilityMiles, Mean VisibilityMiles, Min VisibilityMiles, Max Wind SpeedMPH, Mean Wind SpeedMPH, Max Gust SpeedMPH,PrecipitationIn, CloudCover, Events, WindDirDegrees
2012-10-1,80,70,60,60,55,49,86,63,33,30.12,30.04,29.98,10,10,7,20,9,28,0.00,1,,341
2012-10-2,76,68,59,54,51,47,80,58,37,30.16,30.08,29.97,10,10,5,10,5,17,0.01,2,Rain,81
2012-10-3,88,74,59,55,49,46,64,47,24,29.99,29.94,29.89,10,10,10,18,11,24,0.00,0,,174
2012-10-4,73,66,59,57,52,46,78,57,43,30.21,30.11,29.97,10,9,5,20,11,29,0.00,0,,40
2012-10-5,76,65,54,60,55,50,92,79,56,30.18,30.11,30.02,10,8,2,18,7,23,0.00,2,,71
2012-10-6,58,52,46,53,42,33,86,67,54,30.26,30.16,30.09,10,10,5,21,14,26,0.00,8,,57
2012-10-7,50,47,44,34,32,30,61,55,51,30.31,30.25,30.18,10,10,10,18,12,24,0.00,8,,67
2012-10-8,69,55,41,49,41,33,80,64,46,30.24,30.14,30.01,10,10,10,14,5,20,0.00,1,,154
2012-10-9,89,71,53,55,48,34,88,55,14,30.02,29.98,29.93,10,10,10,14,9,18,0.00,0,,208
2012-10-10,68,62,55,57,52,46,84,69,58,30.24,30.13,30.00,10,10,10,17,8,24,0.00,4,,64
2012-10-11,85,70,55,66,60,53,93,75,46,30.14,30.10,30.03,10,8,4,21,5,24,0.00,3,,133
2012-10-12,84,76,68,67,64,61,88,71,47,30.14,30.08,30.01,10,10,10,21,10,26,0.00,2,,152
2012-10-13,86,76,64,68,53,30,87,53,15,30.04,29.98,29.90,10,10,10,24,12,32,0.00,1,Rain-Thunderstorm,229
2012-10-14,80,67,54,43,39,35,61,36,20,30.26,30.17,30.04,10,10,10,14,7,18,0.00,0,,31
2012-10-15,80,68,56,49,44,36,63,43,21,30.22,30.12,30.00,10,10,10,13,4,18,0.00,0,,177
2012-10-16,83,74,66,56,54,48,68,52,30,29.99,29.85,29.75,10,10,10,15,11,22,0.00,0,,210
2012-10-17,90,77,64,52,42,29,64,35,11,29.89,29.78,29.72,10,10,7,17,10,24,0.00,0,,235
2012-10-18,73,62,52,43,33,29,53,35,20,30.10,30.01,29.89,10,10,10,13,6,16,0.00,0,,81
2012-10-19,79,63,47,49,40,32,63,41,26,30.10,30.01,29.91,10,10,10,16,7,20,0.00,0,,163
2012-10-20,90,74,57,60,49,37,79,48,16,29.91,29.85,29.78,10,10,10,17,9,23,0.00,0,,209
2012-10-21,91,79,67,61,52,33,78,47,13,29.93,29.87,29.83,10,10,10,14,10,20,0.00,0,,208
2012-10-22,83,73,63,65,59,50,86,62,33,30.01,29.95,29.91,10,10,4,16,8,36,0.12,2,Rain-Thunderstorm,178
2012-10-23,87,76,64,64,57,45,88,57,24,29.99,29.93,29.89,10,10,10,13,8,20,0.00,0,,188
2012-10-24,87,77,67,65,62,57,88,67,36,29.95,29.87,29.78,10,10,10,21,12,26,0.00,0,,172
2012-10-25,71,62,51,64,51,35,88,61,36,30.18,29.98,29.79,10,10,7,23,13,30,0.00,0,,47
2012-10-26,57,49,41,35,29,21,69,48,27,30.38,30.29,30.18,10,10,10,20,13,25,0.00,1,,43
2012-10-27,57,47,37,25,22,19,61,38,22,30.37,30.26,30.14,10,10,10,10,7,,0.00,2,,109
2012-10-28,66,51,36,34,28,25,71,44,26,30.27,30.21,30.13,10,10,10,9,5,,0.00,0,,137
2012-10-29,73,58,42,37,33,30,66,44,26,30.23,30.16,30.07,10,10,10,15,7,20,0.00,0,,152
2012-10-30,78,60,43,43,38,36,73,48,21,30.09,30.05,29.99,10,10,10,7,2,,0.00,0,,103
2012-10-31,81,64,46,49,40,33,78,48,17,30.14,30.08,30.05,10,10,10,12,2,16,0.00,0,,133